GFSMA_prec_cthk_021.txt.gz
RH
51 53 50 53 56 58 55 46 47 48 42 40 38 35 32 29 30 29 28 40 44 61 70 79 75 65 66 62 60 51 52 53 58 61 62 62 55 54 53 55 55 58 62
49 52 57 56 59 54 52 51 46 41 38 36 36 35 29 31 32 25 28 37 39 47 57 71 75 73 61 59 58 54 55 49 55 65 72 64 63 59 55 55 58 61 62
51 54 52 52 51 52 51 52 44 43 38 33 38 32 30 34 31 27 29 37 43 43 49 61 67 65 69 67 61 57 59 64 61 60 64 62 61 59 60 58 56 58 60
49 48 49 52 50 47 50 48 46 45 39 39 32 36 29 31 29 28 26 30 34 45 45 47 60 65 61 59 69 71 72 67 68 70 68 59 58 55 57 53 54 61 65
49 52 56 54 48 44 43 44 43 38 37 37 34 30 31 32 30 29 34 29 29 32 41 44 47 54 58 61 68 72 69 72 74 80 77 75 75 70 67 64 62 59 59
57 63 57 48 49 41 39 43 47 46 45 35 33 33 35 36 32 28 30 33 31 31 32 37 42 46 45 49 58 64 69 66 64 68 73 74 77 79 78 80 77 74 69
49 55 49 49 47 39 46 53 53 49 49 40 42 40 37 38 35 34 33 31 26 25 29 29 40 34 42 42 43 45 50 54 58 63 68 74 79 85 84 86 88 91 89
41 47 47 45 41 44 50 51 52 53 52 44 45 43 43 40 35 33 32 30 28 26 23 23 25 26 29 32 33 37 38 39 42 43 45 52 60 68 76 80 81 84 92
38 39 41 41 38 48 50 49 52 52 53 43 47 47 47 46 45 40 36 33 32 29 28 28 24 22 23 24 25 25 25 28 32 31 31 32 35 39 47 55 59 59 65
36 38 40 38 41 48 49 50 49 50 49 46 47 49 50 52 55 54 51 45 40 38 34 31 31 28 28 27 27 26 25 24 23 23 22 22 22 23 23 25 26 28 29
38 37 38 37 44 47 50 50 48 48 47 45 44 47 46 47 49 51 51 51 53 54 48 43 41 41 41 39 37 35 32 30 27 26 25 25 25 24 22 21 21 21 21
33 34 35 38 44 46 50 49 48 47 47 45 43 47 49 50 50 49 50 50 50 49 50 50 49 47 47 48 46 41 40 39 36 33 31 30 29 29 28 26 23 23 22
29 29 31 36 42 46 50 50 48 45 45 44 44 45 48 51 52 51 50 49 50 49 49 50 49 48 50 52 50 49 45 44 41 39 38 38 37 36 34 32 31 32 32
28 28 29 34 42 45 49 50 49 46 44 45 43 42 44 47 49 51 54 56 55 52 51 50 51 51 52 52 52 53 53 52 47 45 45 44 44 43 39 33 31 33 36
30 27 29 35 43 42 46 48 48 45 44 43 43 42 42 44 45 46 48 53 58 54 52 53 54 54 53 51 54 58 58 61 64 64 62 61 60 62 61 58 54 51 48
29 28 27 33 41 42 45 46 48 46 44 44 43 43 45 48 48 47 46 47 52 57 52 52 55 56 57 58 59 63 66 65 66 67 69 69 67 67 71 73 70 68 66
31 29 26 31 40 40 44 45 48 49 48 47 48 50 53 56 55 54 49 47 47 54 56 53 50 54 58 60 61 61 63 69 70 67 67 65 65 66 66 70 72 70 67
28 31 28 29 38 41 42 44 47 48 46 47 50 56 58 55 52 54 53 49 46 45 53 54 55 50 54 58 62 62 64 64 68 71 72 68 62 62 64 65 66 67 62
25 28 29 27 35 39 40 43 46 49 46 48 53 59 60 59 54 49 52 51 49 46 46 52 56 55 49 53 58 62 66 65 62 69 73 70 70 69 68 65 61 58 56
27 25 29 27 32 38 38 41 44 47 45 47 51 61 63 65 62 55 52 51 51 48 45 48 53 60 55 52 58 59 63 65 64 68 73 71 74 77 72 64 58 54 51
31 23 25 28 27 35 36 38 40 44 45 47 51 56 59 65 62 62 54 53 52 51 49 50 54 60 61 56 58 61 63 69 71 73 77 81 73 69 62 60 54 51 50
35 25 22 26 25 29 34 37 40 41 44 46 49 52 56 62 66 67 62 58 56 52 50 51 52 57 61 60 63 61 65 74 79 76 73 64 63 59 57 50 44 39 39
38 30 22 24 24 27 31 35 38 39 42 45 45 48 51 61 68 67 70 66 59 55 51 49 51 54 63 62 58 60 68 67 68 67 57 50 47 45 40 36 32 33 33
38 36 27 24 24 24 28 33 38 41 43 43 46 47 54 61 66 66 70 70 62 60 49 48 49 53 55 55 51 60 61 63 59 51 43 40 38 33 31 32 33 34 34
42 39 33 26 23 21 24 31 36 41 42 42 46 47 56 64 68 66 73 69 65 61 53 55 50 53 52 50 55 59 57 54 46 41 37 29 31 33 31 32 34 32 30
41 43 39 34 29 27 26 29 35 41 43 43 45 46 56 66 66 70 70 73 66 57 56 56 53 46 50 52 55 53 49 39 37 34 30 27 31 33 30 27 24 21 21

GFSMA_prec_cthk_024.txt.gz
RH
54 52 50 56 58 55 53 57 54 48 39 41 47 40 41 40 40 43 42 32 45 63 69 77 70 59 57 56 53 45 50 49 50 56 59 64 57 58 54 52 53 58 57
49 54 59 57 55 55 65 60 53 48 37 43 41 36 40 43 36 37 40 36 41 50 57 71 72 65 64 57 58 56 54 52 56 71 72 67 63 62 59 55 55 59 59
49 56 53 51 52 66 57 59 54 56 39 37 34 37 43 37 38 37 43 50 43 40 48 57 63 66 64 62 55 55 59 63 56 62 65 63 61 61 59 59 56 56 60
48 47 60 56 52 53 52 53 51 49 43 41 37 36 41 40 35 35 39 45 45 53 43 48 59 63 58 56 62 64 65 65 63 62 65 66 61 58 56 56 52 54 61
44 47 59 59 49 44 45 47 52 45 45 43 37 37 38 37 36 41 38 37 39 48 52 42 45 52 56 55 59 64 66 65 64 67 74 73 69 68 67 67 64 63 61
48 56 61 61 52 47 54 60 57 49 49 41 43 40 41 39 36 39 41 43 38 38 47 48 45 47 44 47 50 54 60 64 59 58 62 67 67 72 73 76 78 78 76
48 49 54 59 50 45 55 55 54 50 52 45 51 46 42 39 37 38 42 38 33 35 36 36 43 48 40 40 40 42 44 49 53 55 58 62 66 70 77 83 82 84 85
41 44 56 56 48 49 54 54 56 59 53 45 51 52 52 46 39 38 36 35 32 32 30 29 32 30 38 42 31 29 31 34 36 39 42 44 47 52 57 66 73 78 80
36 38 44 49 49 47 56 51 52 53 56 44 46 58 57 56 54 48 42 39 35 35 32 31 30 25 26 28 26 24 24 26 26 28 31 32 33 34 35 37 43 50 53
33 35 35 38 41 48 52 52 48 50 47 50 46 44 45 51 57 58 54 54 51 47 42 40 36 34 32 35 28 27 25 25 25 23 22 21 21 21 22 22 23 23 25
32 36 34 41 36 45 46 47 46 42 45 48 47 50 48 48 46 52 57 55 49 48 48 48 50 49 44 44 43 37 35 32 32 33 30 26 25 25 25 23 22 22 22
35 35 34 36 37 42 45 47 46 43 42 42 46 48 49 49 53 54 51 51 54 55 49 50 48 49 51 52 50 42 41 42 40 36 33 32 31 31 30 29 29 28 27
36 35 31 29 36 38 44 43 44 44 41 42 40 43 47 49 49 49 50 53 54 53 52 52 52 51 51 52 55 50 47 44 42 40 38 40 40 40 38 37 35 34 32
36 35 32 28 29 37 41 42 45 44 44 40 38 39 43 44 47 50 49 52 56 57 53 51 54 54 52 52 53 50 49 48 51 55 59 58 56 55 54 55 55 51 45
33 32 30 27 28 34 38 42 46 45 43 40 40 39 41 49 52 53 51 52 51 55 56 56 52 50 52 50 48 49 56 62 58 59 62 61 61 61 62 62 65 68 66
27 32 28 26 28 34 37 39 46 45 41 41 43 44 46 55 58 56 52 52 51 50 54 53 51 52 50 53 55 54 62 58 58 58 64 66 66 67 65 64 65 70 72
28 28 29 25 23 32 36 37 41 44 39 39 43 46 49 51 55 55 50 51 53 51 47 51 53 52 48 51 56 54 57 59 64 63 60 62 65 68 66 64 64 63 64
30 28 28 29 25 27 34 34 38 43 42 42 43 46 48 49 52 51 51 51 53 52 49 47 51 50 49 54 49 55 58 63 68 66 59 60 65 68 68 71 71 69 65
33 28 25 25 25 25 31 34 35 38 42 41 43 45 53 54 50 53 51 51 53 53 49 50 49 52 54 55 55 50 55 60 61 62 63 62 65 66 68 66 67 58 62
39 36 30 23 24 25 29 33 32 35 39 41 41 44 49 53 55 55 53 54 55 55 56 54 55 51 53 58 60 57 61 64 64 64 66 69 67 68 60 52 50 47 48
39 39 37 29 22 26 27 30 30 33 36 39 40 42 46 50 53 56 58 58 61 58 60 62 61 54 50 55 57 60 61 61 58 60 69 74 68 56 50 45 43 40 37
40 41 40 37 25 21 23 25 27 29 33 35 39 39 44 48 50 57 60 61 64 64 65 62 64 62 55 51 54 61 59 58 60 67 64 64 58 47 43 46 43 39 35
43 42 42 41 34 21 20 18 21 24 25 29 33 38 44 48 49 51 58 67 67 68 69 67 63 67 65 61 57 57 58 52 58 62 58 54 41 39 38 36 31 29 28
39 40 41 40 38 28 19 20 22 25 28 31 37 41 45 49 48 50 57 65 70 69 66 65 64 64 67 66 56 54 53 49 50 51 48 39 38 31 29 29 30 27 27
43 40 42 42 40 33 25 21 22 25 29 35 40 44 47 48 49 50 56 65 73 70 68 67 64 65 61 57 50 52 50 51 52 49 40 35 29 32 29 28 27 24 17
45 49 48 44 42 39 32 26 24 26 30 32 38 41 41 45 49 52 59 67 77 75 75 72 63 62 63 52 46 44 52 52 46 35 34 28 24 26 27 24 21 19 19

GFSMA_prec_cthk_030.txt.gz
RH
55 52 58 68 54 61 69 65 57 41 40 49 36 34 38 42 44 41 44 33 44 60 66 68 63 61 53 53 50 46 47 50 51 56 63 68 64 62 62 61 58 57 54
53 56 54 67 57 58 61 57 51 57 57 39 30 42 42 33 39 35 43 43 31 41 54 64 66 57 62 57 57 51 47 52 54 61 66 67 67 63 62 62 61 59 56
47 56 49 53 70 58 52 51 41 57 47 41 36 43 39 35 30 45 46 50 43 41 42 52 60 58 58 50 53 57 55 51 49 45 51 56 61 60 60 57 59 59 57
44 43 57 55 60 60 49 51 48 69 51 62 46 45 43 38 31 40 42 42 47 51 43 41 49 56 56 55 53 51 51 52 51 48 49 57 54 53 54 58 60 66 64
36 40 53 54 51 71 56 50 52 58 57 51 54 39 43 40 45 41 35 40 40 45 46 44 39 47 54 52 46 46 47 50 54 52 54 60 61 59 60 61 64 68 74
32 36 49 60 52 56 48 50 52 49 47 49 50 44 43 39 43 43 43 45 35 42 44 38 45 49 45 41 46 48 48 50 51 56 55 56 56 58 58 55 55 60 69
31 44 54 70 54 49 48 46 47 55 47 43 43 42 43 36 37 45 41 36 38 45 42 31 34 43 39 39 38 35 38 41 46 48 51 52 54 54 56 59 58 59 61
36 46 48 51 53 55 52 45 47 54 42 45 53 52 51 52 51 50 39 35 35 36 34 35 39 32 34 40 27 27 26 26 29 31 33 37 38 39 39 40 40 41 42
31 44 45 45 54 51 53 49 41 47 46 43 48 52 54 53 53 54 51 48 43 46 42 44 39 35 36 30 25 22 22 22 23 24 25 25 27 28 28 26 26 26 26
28 33 32 40 42 44 45 51 41 46 47 41 38 50 54 54 52 54 53 52 50 46 47 50 50 45 40 40 41 34 30 29 28 28 27 27 27 27 26 25 24 24 25
27 26 32 32 35 35 45 48 43 41 41 48 43 44 48 51 55 58 57 55 53 53 54 52 54 51 48 46 46 46 37 36 35 35 35 36 36 35 35 34 34 33 32
29 28 30 32 31 34 40 46 43 37 41 45 45 45 43 46 55 57 61 58 54 55 54 52 51 49 53 52 50 48 43 38 36 35 35 38 39 43 46 49 50 52 49
26 25 27 32 32 29 35 37 40 38 36 40 41 43 50 58 60 58 58 59 57 55 54 51 51 52 49 50 48 48 45 41 39 37 43 47 46 47 50 52 52 53 55
28 29 30 29 27 28 29 39 36 40 38 36 34 39 45 54 56 53 54 54 55 56 55 53 52 49 47 46 45 45 43 43 40 42 44 44 45 46 47 48 48 49 52
25 29 28 27 26 27 25 31 38 35 38 39 35 33 42 47 53 54 52 49 49 54 55 54 51 47 45 45 43 43 40 39 42 42 45 44 44 45 43 46 49 48 50
21 30 25 26 27 26 25 26 33 34 37 39 38 34 35 39 47 53 53 50 45 46 48 51 50 50 49 48 45 46 43 41 44 45 45 46 46 45 46 49 48 47 47
26 26 31 28 28 28 24 23 26 33 34 37 38 38 37 38 44 49 51 51 48 47 47 48 54 53 52 50 50 51 50 50 47 49 52 51 50 48 47 49 48 47 43
24 28 32 34 30 26 24 23 19 26 34 35 36 36 38 40 45 48 51 49 46 47 49 52 53 55 55 55 53 52 52 54 57 55 56 48 50 50 46 50 49 43 32
25 25 27 29 27 24 22 22 21 19 27 35 36 37 38 40 41 45 47 48 49 48 50 50 54 55 55 55 54 54 55 60 59 57 52 49 51 46 49 46 42 35 25
25 26 25 26 29 28 26 22 22 21 20 25 33 37 36 36 40 42 42 42 44 47 48 50 54 57 59 58 59 57 56 59 59 59 52 55 49 46 44 41 39 32 27
28 27 26 28 31 31 31 29 22 21 21 20 23 30 33 34 34 35 35 38 40 43 46 46 48 54 60 64 64 62 62 62 62 67 65 56 50 51 45 39 36 32 30
35 34 28 29 30 33 35 36 34 24 20 20 20 22 27 29 29 31 33 36 37 39 42 46 47 47 55 61 63 66 66 66 62 63 65 67 57 47 45 42 35 32 25
38 35 34 32 31 33 35 38 39 37 34 27 23 20 22 22 25 27 30 33 35 37 40 45 48 50 51 59 66 68 70 69 66 66 66 68 62 44 39 30 25 21 20
41 41 37 36 35 34 35 37 40 42 40 37 33 27 22 21 23 24 25 29 31 34 36 40 45 53 58 65 69 71 73 73 68 69 68 67 71 54 31 26 20 19 18
48 45 42 40 38 37 41 42 45 48 46 42 41 36 33 31 30 30 29 26 27 33 35 40 47 54 59 63 68 70 73 68 66 63 66 65 65 51 31 23 18 18 17
49 48 41 38 42 43 46 48 52 56 52 49 49 45 42 40 40 37 37 36 37 34 38 42 47 53 57 59 68 76 79 74 71 72 70 69 71 48 30 22 17 19 18

GFSMA_prec_cthk_033.txt.gz
RH
44 57 60 66 62 58 62 52 58 59 47 42 37 38 41 44 45 45 42 43 54 62 67 60 61 56 51 49 47 44 45 48 49 53 58 62 60 60 59 59 61 61 60
51 59 63 65 59 49 47 44 53 48 44 34 30 41 38 40 42 44 44 37 37 46 55 60 58 50 54 50 49 44 42 43 44 48 53 57 58 57 57 56 57 58 59
50 60 59 63 65 53 46 45 55 55 54 45 41 41 37 37 38 39 46 46 44 39 41 52 56 51 49 42 44 45 45 45 43 40 46 49 52 50 50 53 54 61 63
46 60 62 58 52 70 44 48 61 61 58 51 44 46 43 41 35 34 36 43 47 45 41 39 49 55 49 46 41 41 41 43 48 46 46 52 49 47 45 45 52 57 65
40 48 59 62 56 57 48 54 57 58 52 48 48 41 42 43 38 37 38 38 36 42 41 42 38 42 46 47 44 43 43 46 51 52 52 55 57 57 57 57 58 59 63
34 46 56 73 58 52 49 53 55 53 50 43 42 41 42 39 45 43 43 38 41 46 37 27 37 40 42 38 45 48 48 49 51 49 49 49 51 50 52 54 55 56 62
35 46 49 58 63 48 49 49 47 45 42 45 47 45 36 40 43 41 38 33 30 32 33 32 36 36 37 40 39 35 34 35 37 41 44 47 48 49 50 51 51 50 48
40 42 46 53 57 54 49 45 47 42 40 47 46 53 50 47 51 50 50 42 42 41 38 34 32 29 32 34 24 23 25 25 28 31 33 35 35 36 37 38 37 37 37
35 38 38 45 48 54 47 46 42 42 39 44 50 51 50 48 50 52 51 48 46 44 43 44 46 42 38 34 31 29 27 25 26 27 27 29 29 29 29 28 27 27 26
33 28 31 39 40 47 43 46 37 42 39 44 47 49 48 52 50 52 51 53 53 50 49 47 45 44 45 42 42 36 31 30 29 29 29 28 29 29 30 30 29 27 27
27 25 29 32 35 35 39 44 42 38 42 40 40 43 50 55 54 57 53 54 52 51 50 48 49 48 45 46 46 45 39 33 34 34 34 34 33 33 35 37 39 38 38
27 27 25 29 32 30 34 42 41 35 39 43 40 43 50 52 54 54 54 52 51 49 50 48 47 46 44 43 44 44 42 40 33 30 33 38 41 43 44 42 42 44 45
25 27 29 28 30 28 29 35 38 36 36 39 40 42 50 55 53 53 54 50 50 49 48 47 46 45 44 44 43 44 43 42 37 34 43 44 43 43 41 41 42 42 44
24 25 27 29 25 29 27 29 33 35 34 33 36 39 45 50 53 51 50 50 50 50 49 49 48 46 47 46 47 46 45 45 43 40 44 46 46 44 42 41 43 44 41
23 24 28 28 28 28 28 24 30 33 35 34 32 34 38 45 49 49 49 51 48 50 52 52 52 51 48 47 48 49 50 47 44 47 45 45 45 43 42 43 45 45 42
22 23 23 25 26 27 26 25 24 30 35 34 33 34 35 39 45 51 51 49 49 47 50 51 53 52 52 51 48 48 47 48 49 46 45 45 44 42 43 41 44 44 40
22 24 24 27 27 29 30 28 22 25 31 34 35 36 37 36 40 49 52 53 48 43 42 46 51 55 53 51 50 48 48 48 50 49 49 49 44 45 44 43 44 44 40
21 24 25 30 31 30 29 27 22 18 25 31 34 36 36 38 37 43 48 50 50 49 47 44 46 51 56 58 57 56 56 53 52 52 54 53 52 49 45 44 43 38 32
18 20 25 25 24 26 26 25 23 19 18 20 28 33 35 37 36 37 41 46 48 49 47 46 44 44 49 53 57 59 59 57 56 54 56 55 55 53 48 45 40 34 28
21 22 22 26 28 28 27 27 24 22 20 18 20 23 29 32 33 34 34 36 38 40 42 44 44 45 44 47 52 56 58 59 58 58 58 60 60 61 62 49 35 33 31
23 23 22 22 26 28 30 31 31 26 23 21 21 19 20 21 24 28 31 30 31 32 35 38 42 44 47 47 47 54 58 59 62 64 62 66 66 64 66 70 48 30 31
28 27 23 22 25 28 31 34 36 36 35 31 26 23 22 20 20 21 25 29 32 32 31 33 36 39 44 47 47 51 58 62 63 64 63 66 69 69 68 69 48 27 25
36 34 32 27 27 29 32 36 38 40 41 40 39 37 33 30 24 21 22 25 28 31 33 33 33 34 39 45 50 52 56 62 65 69 71 69 72 74 74 71 54 25 21
45 41 38 34 31 30 33 38 42 43 43 43 44 44 43 39 39 37 31 31 33 31 32 36 38 38 41 48 53 56 58 63 68 74 78 76 74 77 77 72 47 24 17
44 48 44 41 38 36 37 42 48 49 49 49 53 53 52 49 48 47 46 44 40 36 36 39 41 43 45 50 54 60 60 65 69 72 76 76 73 79 78 76 52 32 17
43 42 48 48 43 38 41 46 52 54 52 56 58 56 54 54 55 57 58 55 51 46 45 44 45 45 45 49 54 57 63 66 67 76 85 77 73 83 85 80 61 33 18

GFSMA_prec_cthk_036.txt.gz
RH
53 57 61 55 51 52 52 57 56 55 43 42 41 37 38 39 38 44 47 51 58 61 63 52 60 51 50 46 43 44 46 45 49 51 54 55 53 54 53 54 54 57 59
52 54 64 62 54 50 51 56 49 45 39 38 35 39 32 34 40 39 41 43 44 49 52 56 53 50 50 47 43 40 41 43 43 49 51 53 51 49 47 46 47 50 59
53 55 55 58 67 48 46 55 56 53 45 41 42 42 36 34 38 39 36 41 41 39 48 54 52 47 44 41 41 40 40 41 41 41 48 50 51 48 43 42 45 54 57
48 53 54 54 58 54 51 61 60 54 50 47 43 44 37 32 33 34 37 41 41 41 41 42 53 49 51 44 44 38 41 44 48 45 47 52 48 45 43 43 48 51 57
41 51 56 57 54 53 50 59 61 52 48 46 44 39 43 39 36 34 37 34 39 40 39 41 42 52 53 56 48 44 43 42 47 48 47 49 53 54 55 54 53 52 54
38 43 59 64 54 52 53 52 54 48 44 41 42 41 43 44 35 35 35 33 32 35 30 33 39 43 44 39 45 48 46 47 50 52 52 51 51 53 55 55 55 53 53
41 40 49 59 57 48 50 47 48 45 41 45 45 38 41 40 44 45 41 36 31 30 29 31 28 32 37 40 38 36 36 36 38 43 49 50 47 49 49 51 50 49 49
41 42 48 52 55 48 54 44 45 38 44 44 46 46 45 49 49 49 46 43 42 40 41 34 31 28 31 33 23 24 27 25 26 30 33 35 37 38 38 40 39 37 34
43 40 41 44 53 50 47 44 41 37 40 44 47 46 47 47 47 47 48 48 46 45 45 44 41 38 35 36 31 28 26 25 26 26 28 29 29 29 28 25 24 23 22
39 36 34 37 43 49 46 43 39 38 40 44 50 53 53 52 50 49 48 47 48 49 46 45 43 42 41 40 39 35 30 28 27 26 26 26 26 26 27 27 28 29 29
31 30 31 30 35 41 45 43 38 41 40 43 50 55 56 56 53 51 48 48 48 50 49 47 45 43 41 40 39 38 36 33 29 29 30 30 30 32 37 39 41 43 44
28 28 28 29 31 34 39 41 42 38 41 42 45 52 56 55 53 53 50 48 47 48 46 45 43 42 41 40 40 41 40 39 31 30 34 38 39 38 38 38 39 40 41
27 27 30 29 29 30 33 38 41 34 37 40 45 46 50 52 53 53 50 46 44 45 44 43 42 42 44 45 44 44 45 44 42 37 38 40 41 38 37 37 39 41 40
26 27 29 29 28 30 30 33 38 39 37 36 40 44 45 48 52 53 53 49 46 47 46 44 43 43 43 43 44 45 44 43 42 39 38 40 41 39 38 39 39 42 42
24 27 29 30 29 27 28 29 33 37 39 37 36 40 43 46 47 48 49 50 48 45 46 47 48 47 46 46 45 45 46 46 43 43 45 45 42 40 36 35 35 38 39
18 22 26 29 31 30 29 27 29 33 39 38 36 35 36 39 42 45 47 47 46 44 44 45 48 51 53 52 52 52 52 52 51 48 48 48 49 47 39 38 37 35 36
17 19 24 26 28 29 30 31 28 28 32 35 37 36 33 34 36 41 43 45 45 45 45 46 46 48 52 53 52 52 53 52 52 52 52 54 56 59 55 53 44 39 33
19 22 24 25 25 29 31 32 31 28 24 30 32 35 34 33 34 36 38 40 44 44 40 40 41 42 44 47 50 51 53 54 54 56 57 56 60 63 66 67 63 51 36
20 23 25 25 26 29 30 29 27 26 23 19 23 30 32 33 33 34 36 38 38 38 41 42 39 40 41 43 45 49 54 56 59 58 59 58 56 59 64 70 70 59 43
19 19 21 23 24 24 27 27 27 27 26 24 21 21 23 26 30 33 35 35 35 36 37 39 41 42 43 45 48 49 52 57 60 62 60 59 57 61 67 71 71 67 43
22 20 21 23 24 25 28 30 31 29 28 31 30 27 23 21 21 22 27 31 34 35 35 36 37 38 39 42 44 47 49 54 63 65 64 61 63 66 71 76 77 77 60
24 23 20 19 20 22 29 33 35 36 36 36 34 34 33 30 25 24 24 24 25 29 32 34 33 34 36 39 43 44 47 50 55 61 63 64 64 65 68 74 80 84 77
29 27 24 20 21 24 27 31 34 37 40 41 42 43 42 42 43 41 37 34 33 32 33 35 35 35 35 37 42 45 48 53 55 58 65 63 67 63 63 74 80 84 85
42 38 35 31 26 27 30 33 37 39 40 42 45 46 46 48 47 48 50 49 50 47 43 42 38 33 33 36 38 41 47 52 55 54 62 63 66 70 71 69 79 85 85
43 45 45 43 40 36 36 39 41 43 44 44 46 48 50 52 56 59 58 57 55 52 56 60 59 57 52 55 49 51 52 51 50 58 56 62 64 73 78 69 77 84 84
39 42 42 43 45 47 47 45 45 47 47 49 50 52 53 55 61 62 63 66 61 58 64 65 65 68 69 68 69 66 62 56 57 58 59 59 64 74 80 72 80 83 83

GFSMA_prec_cthk_042.txt.gz
RH
66 66 59 58 55 58 65 56 48 39 38 37 36 39 43 48 55 53 56 62 69 64 50 52 47 44 39 36 38 39 40 41 41 44 46 44 43 41 40 44 50 55 56
70 69 68 59 51 57 61 59 51 43 40 35 34 35 39 40 46 54 55 53 60 63 58 52 47 46 41 37 36 38 40 41 40 43 47 48 45 43 41 45 54 61 62
62 63 63 68 55 59 60 56 51 43 41 40 32 33 39 40 39 49 51 55 52 57 65 60 48 47 42 38 38 38 38 38 38 37 41 46 44 45 44 44 49 57 62
61 61 61 59 57 59 61 58 53 42 42 48 35 34 37 38 39 41 40 41 44 49 57 59 57 53 47 48 50 43 39 40 42 41 41 53 53 54 50 53 52 52 55
56 60 64 61 62 59 61 58 54 44 45 44 38 37 35 36 38 40 39 40 40 38 39 46 49 52 51 54 49 46 46 44 44 48 49 46 48 51 52 49 48 49 50
57 58 67 67 62 57 60 54 46 44 41 38 40 44 36 33 37 36 34 31 30 28 31 34 41 42 44 42 41 44 46 45 43 46 47 48 49 45 45 47 47 46 46
51 52 56 58 64 50 52 51 46 41 41 38 39 39 36 36 36 37 36 33 34 29 29 27 28 35 36 38 32 28 31 33 32 31 33 36 38 38 36 35 33 32 31
48 50 53 53 58 50 49 47 47 46 46 46 45 44 45 43 43 41 40 39 39 37 36 33 32 28 29 23 20 19 21 22 23 24 25 28 29 28 28 28 24 21 19
42 46 52 54 48 50 47 46 44 41 45 46 44 44 45 45 45 45 45 44 44 41 40 40 37 32 30 29 26 25 24 24 24 23 24 23 21 20 20 21 22 25 29
40 41 43 49 47 46 45 47 42 41 48 49 48 46 45 44 44 44 44 44 42 41 39 38 38 36 35 34 33 32 29 26 26 25 26 25 25 24 25 27 30 31 32
37 37 38 43 46 48 46 45 42 44 45 48 50 50 48 46 46 44 45 44 42 40 39 38 37 39 38 37 36 36 33 28 25 27 29 30 32 33 33 32 32 31 31
31 32 33 36 42 43 45 44 43 42 44 46 47 48 51 50 47 45 43 42 40 39 39 40 39 40 40 41 40 40 41 40 37 40 43 44 45 43 40 34 34 34 37
23 25 28 33 36 39 41 43 41 43 42 42 42 44 44 45 46 46 43 42 40 40 39 39 39 41 43 45 43 42 40 42 45 46 43 45 45 45 48 52 52 51 46
22 25 27 30 33 37 38 40 39 40 45 43 41 42 42 41 42 44 46 45 46 43 42 44 46 47 47 44 40 39 39 42 44 46 47 46 45 48 52 53 55 55 57
23 26 27 28 31 33 38 38 38 37 39 41 40 41 42 44 43 44 47 47 46 46 45 45 46 45 44 42 41 40 40 41 44 47 49 47 49 51 53 53 55 57 62
26 25 25 27 29 32 34 38 37 37 37 37 39 41 40 43 45 44 44 46 45 43 41 38 38 38 39 40 42 42 44 45 47 48 49 51 51 52 52 53 56 58 63
26 24 24 25 27 30 30 32 34 36 37 36 35 36 37 38 41 43 43 42 42 41 40 37 37 37 36 37 37 39 42 45 49 52 55 56 55 54 53 54 58 63 66
23 21 21 22 26 28 29 29 30 34 36 36 34 34 35 35 33 34 36 37 37 38 38 37 35 36 36 38 38 39 42 44 48 50 52 55 58 59 59 56 56 61 62
19 19 19 18 20 23 26 29 30 30 31 32 34 34 34 34 33 33 33 32 31 30 31 31 31 32 33 35 37 40 42 42 44 46 49 51 56 59 59 60 58 56 59
21 19 18 17 16 18 22 24 27 27 27 26 25 26 30 30 31 31 31 31 31 31 32 32 33 34 36 37 38 37 38 43 45 46 46 49 52 56 55 56 59 61 63
21 20 20 18 18 19 19 21 21 23 25 26 25 25 25 23 22 24 26 25 27 29 31 31 32 33 31 31 31 32 35 35 36 41 43 45 49 50 55 60 63 65 67
23 22 20 18 17 17 18 20 23 23 24 26 26 26 27 27 28 29 30 32 34 36 39 43 42 42 44 47 51 49 52 53 48 50 47 47 52 51 55 58 63 70 77
21 21 20 18 17 17 19 21 23 26 27 28 29 32 34 35 38 42 45 47 49 53 54 56 54 56 57 63 63 65 67 64 61 64 68 65 64 59 60 62 66 67 72
22 23 23 21 20 20 20 22 25 28 29 31 33 36 38 41 43 46 48 48 49 50 53 58 60 60 63 64 63 62 63 62 58 61 66 63 64 62 68 68 70 68 69
28 28 28 26 25 23 24 26 29 31 31 33 34 36 38 40 44 47 48 53 59 61 64 63 63 62 62 61 64 64 61 60 55 53 55 57 53 59 65 65 68 79 77
41 42 44 43 45 44 42 40 40 40 39 38 40 41 43 44 50 55 56 60 61 62 61 63 62 62 61 60 63 64 62 61 57 57 53 62 61 68 68 58 62 69 78

GFSMA_prec_cthk_045.txt.gz
RH
69 61 58 56 59 68 60 52 44 39 36 35 36 45 55 54 52 58 64 65 60 49 48 44 44 39 36 37 42 41 41 41 43 45 45 44 42 42 44 48 57 59 59
70 67 68 58 59 63 61 55 45 40 37 33 34 39 44 50 54 55 55 59 62 57 52 47 47 41 38 36 35 37 39 40 39 40 43 45 42 45 43 43 48 57 61
65 63 67 70 57 61 60 54 46 40 38 33 32 38 40 39 47 53 54 53 59 60 61 53 45 44 41 38 37 37 37 38 38 36 38 49 47 46 45 44 46 50 55
61 60 62 62 59 59 58 53 43 41 44 37 34 38 38 38 40 43 44 45 50 56 57 57 57 52 51 48 46 43 43 42 43 45 44 44 49 52 52 50 48 48 49
63 62 63 63 60 56 55 53 45 40 46 38 35 33 35 37 39 38 37 37 37 40 44 48 49 49 49 50 48 46 44 45 44 44 47 50 50 48 44 43 45 46 47
59 64 63 63 61 55 54 51 43 41 41 39 40 39 33 34 35 35 31 30 29 30 31 36 41 43 41 41 37 38 40 45 46 44 42 43 42 45 40 38 36 34 33
52 55 57 59 57 52 51 49 42 40 39 39 37 35 31 32 32 32 31 29 28 28 25 25 27 34 35 33 30 25 24 29 30 30 30 31 32 31 31 30 29 27 23
48 53 54 58 51 52 49 46 44 44 44 41 41 42 42 42 42 42 39 37 36 34 32 33 30 27 25 23 22 22 23 23 23 24 24 25 25 24 24 24 22 22 25
47 53 52 52 46 55 52 47 42 43 44 44 44 46 47 50 47 45 44 43 41 40 38 37 34 30 29 31 28 26 25 24 24 23 22 21 20 19 20 21 24 27 29
45 47 51 51 49 45 49 45 42 41 45 47 46 45 45 47 48 48 44 43 41 39 38 37 37 35 35 33 32 31 28 25 26 29 31 32 31 28 27 27 29 30 31
41 43 44 47 51 47 47 43 44 42 46 48 48 47 47 45 46 47 47 45 40 39 37 37 37 36 37 36 38 37 37 37 37 37 38 38 39 38 42 42 45 46 47
35 36 37 41 42 43 42 41 48 44 44 45 47 47 47 48 46 45 44 43 41 38 39 38 38 40 40 39 37 37 41 41 40 40 42 42 45 48 48 53 53 55 57
28 29 33 34 38 40 39 40 44 46 43 42 42 41 42 45 43 43 43 43 43 41 41 41 43 42 40 36 36 37 39 40 41 42 42 43 47 49 51 53 52 53 56
25 26 25 29 33 36 36 36 40 44 44 43 41 40 40 41 42 42 44 45 45 44 43 46 46 46 42 39 37 38 39 40 40 42 45 46 46 47 49 52 55 55 56
25 23 23 26 29 32 35 35 35 39 41 42 41 40 41 42 42 43 44 43 44 47 46 41 38 38 39 39 39 40 41 42 44 45 48 49 49 49 49 50 51 53 54
26 23 23 25 27 29 32 34 35 36 38 39 40 39 38 39 40 41 42 41 42 42 41 39 37 36 35 35 35 36 38 42 46 48 50 51 52 52 50 47 45 49 52
26 25 23 23 25 25 27 30 32 34 36 37 37 37 37 40 39 38 37 38 38 37 37 36 34 32 32 33 34 36 38 40 42 46 48 50 51 53 56 57 56 54 51
27 26 25 21 23 23 24 25 29 32 35 35 34 34 35 34 35 37 37 35 34 33 33 32 31 31 32 34 35 35 37 39 42 42 42 42 46 50 52 54 58 60 59
27 25 23 20 20 22 24 25 25 27 31 33 32 32 33 33 32 32 32 32 32 32 32 31 31 33 34 34 34 34 35 36 38 40 43 45 47 49 51 55 58 59 62
26 22 19 19 19 19 20 22 25 25 24 25 27 29 30 31 31 31 31 30 30 29 29 30 30 34 33 33 32 32 36 38 38 43 42 42 43 45 49 51 53 56 59
23 21 20 18 18 17 16 17 19 20 21 21 21 21 22 23 24 25 26 28 31 31 32 34 35 39 45 47 49 50 50 52 52 54 53 54 54 53 51 49 50 49 50
20 22 22 22 20 16 14 14 16 18 19 20 21 21 23 22 21 23 26 28 31 33 37 41 44 46 49 53 58 59 58 55 52 60 52 50 54 51 54 57 58 61 58
20 21 23 23 20 18 16 17 18 21 21 22 23 23 24 27 28 31 33 35 40 44 48 51 50 52 53 56 57 57 59 57 54 60 61 44 52 46 50 54 58 63 70
19 22 23 21 20 18 18 18 20 23 23 24 25 27 29 31 33 35 37 39 40 40 44 45 48 54 57 60 64 65 64 60 51 50 55 46 48 49 52 51 49 54 60
21 22 22 22 20 19 19 18 19 22 24 26 28 30 31 33 35 36 37 39 42 44 48 53 57 59 61 65 70 68 62 59 50 39 49 50 45 48 47 45 46 44 46
22 24 24 25 25 23 21 20 21 23 26 29 32 33 34 35 38 41 40 43 47 53 58 58 59 60 62 66 72 67 62 60 52 45 45 52 49 51 44 39 42 42 43

GFSMA_prec_cthk_048.txt.gz
RH
62 65 60 63 66 65 57 51 45 41 35 35 48 60 61 56 65 68 66 56 48 46 40 44 44 36 36 41 43 41 41 41 42 46 46 46 44 44 42 46 54 60 60
69 72 65 61 65 64 60 54 45 43 44 41 41 51 58 57 59 63 72 61 57 52 47 43 43 39 36 35 36 38 38 38 39 39 42 47 44 47 44 42 44 52 57
73 70 73 63 62 59 53 47 45 39 45 45 44 45 52 56 56 60 67 69 61 56 54 48 45 44 41 39 39 37 37 37 40 40 39 44 50 50 49 49 49 47 49
67 66 68 61 61 60 57 54 48 47 40 42 48 48 46 46 46 49 57 61 60 66 56 55 53 51 49 48 48 44 43 41 41 44 46 47 45 44 47 44 44 44 46
61 65 68 72 60 59 57 53 49 47 45 42 42 44 45 47 42 44 44 44 44 50 54 47 47 46 45 45 44 43 42 44 47 46 48 45 42 42 41 38 37 35 34
56 64 76 69 64 59 55 51 43 41 48 44 41 39 43 42 41 41 42 41 36 38 42 42 46 45 38 37 36 33 32 32 35 34 33 33 35 36 33 31 29 29 26
48 55 67 65 57 59 54 45 39 37 43 41 41 36 33 34 37 37 40 37 35 38 35 33 35 41 38 32 26 21 20 24 26 24 23 22 24 25 25 23 22 21 19
48 56 58 57 59 61 54 53 42 44 43 38 47 42 43 43 45 47 42 43 41 41 42 37 31 30 31 34 27 23 22 21 21 21 21 20 20 19 18 18 18 21 23
47 50 51 60 58 57 53 47 44 44 49 45 44 52 51 55 51 46 44 46 41 43 40 37 38 33 33 36 29 27 24 24 28 30 29 27 24 26 28 33 36 37 39
44 47 60 54 51 59 51 47 44 46 48 49 45 46 46 48 57 55 45 43 39 39 38 41 40 40 36 37 36 36 35 34 34 34 34 32 36 40 44 43 47 49 51
38 45 60 51 52 50 47 50 44 43 46 50 49 47 46 49 46 52 51 45 39 38 41 40 43 42 41 40 47 43 40 38 35 36 39 39 41 44 45 47 49 50 52
37 37 44 47 46 44 45 53 48 41 45 45 46 46 50 56 50 49 46 44 43 42 42 42 42 41 41 40 39 38 38 38 37 38 42 45 45 46 48 50 50 52 53
36 36 33 37 41 40 42 52 51 50 40 43 40 44 44 43 42 42 43 45 43 43 44 44 44 43 40 39 41 38 38 38 39 43 44 43 43 44 45 46 47 48 49
33 34 31 31 32 36 37 40 47 50 47 40 39 39 43 42 41 40 41 43 44 47 47 42 44 40 37 37 40 38 39 40 42 45 46 46 47 48 47 45 46 48 48
31 28 28 29 29 31 33 37 41 44 45 43 43 41 39 43 44 44 43 43 42 47 46 41 37 36 34 35 35 35 37 40 43 45 45 46 48 50 52 53 52 52 52
26 27 25 24 27 28 29 32 39 40 41 45 43 41 39 42 43 41 41 40 39 41 39 40 38 37 33 32 34 34 37 40 42 41 41 44 46 48 49 52 54 56 57
25 22 22 21 24 28 28 28 32 39 38 40 41 39 40 39 39 43 40 37 37 37 37 36 35 35 31 30 32 34 35 35 38 38 41 45 46 47 49 50 53 55 57
24 22 23 21 21 24 27 28 29 33 35 36 37 37 37 39 35 34 37 37 35 34 33 33 33 34 35 36 33 32 35 38 41 42 42 42 42 41 42 43 45 46 46
24 23 24 24 20 21 24 24 25 28 33 35 35 33 34 35 35 35 37 37 40 37 36 35 35 35 35 35 36 38 37 37 37 40 39 41 42 43 44 45 44 44 46
25 23 24 25 21 18 22 25 26 23 27 30 32 32 32 32 31 32 32 33 33 33 33 33 36 38 39 40 41 41 45 52 53 56 58 58 56 53 53 53 50 49 51
23 22 24 24 21 21 21 22 24 23 24 23 26 27 27 28 28 27 30 31 32 35 37 38 40 44 47 51 53 57 58 58 56 59 56 59 59 55 52 45 47 54 58
23 23 22 20 20 21 19 17 17 20 22 23 23 21 19 20 19 20 21 26 28 29 31 35 40 46 51 57 60 59 57 59 56 68 64 56 55 49 49 50 49 49 48
22 23 21 19 18 19 17 15 14 16 19 19 20 22 22 24 23 24 23 24 26 29 35 38 43 50 51 54 53 53 58 63 64 61 56 48 47 42 43 43 45 45 44
23 22 19 18 19 19 18 16 16 16 18 20 24 25 23 23 27 31 34 35 37 38 39 40 42 45 47 51 52 56 59 58 54 55 57 42 39 37 39 39 41 46 46
22 19 17 17 20 18 16 15 17 20 21 21 21 23 25 26 27 28 30 31 32 35 41 42 43 45 51 55 59 58 62 64 51 53 55 50 41 38 34 35 35 38 41
19 17 16 18 19 19 18 16 18 20 24 25 23 23 24 25 27 29 29 30 31 35 42 46 49 52 57 60 61 63 66 68 61 49 50 47 38 39 34 27 32 36 37